Location: *
(57.6680°S, 48.3040°W)
Time: 10:32:35
(UTC+00:00)

Daily predictions for brighter satellites

Satellite Brightness Start Highest point End
(mag) Time Altitude Azimuth Time Altitude Azimuth Time Altitude Azimuth
NOSS 3-1 (A) 4.1 19:39:00 10° WNW 19:46:57 72° SSW 19:53:53 10° ESE
Cosmos 1943 Rocket 3.1 19:44:36 10° SW 19:49:38 30° SSE 19:54:41 10° E
Lacrosse 5 rocket 3.7 19:46:32 10° W 19:50:22 29° NW 19:54:00 10° NNE
SL-8 Rocket 4.3 19:44:36 10° NNW 19:50:49 77° WSW 19:57:07 10° S
Meteor 1-28 Rocket 3.2 19:48:03 10° NNE 19:51:49 74° ESE 19:55:40 10° SSW
Cosmos 1733 3.5 19:48:54 10° N 19:52:38 50° E 19:56:26 10° SSE
Cosmos 2333 Rocket 2.6 19:47:49 10° N 19:53:20 50° ENE 19:58:56 10° SE
SL-14 R/B 3.3 19:49:31 10° S 19:53:39 66° ESE 19:57:41 10° NNE
Okean-O 3.2 19:49:40 10° SSE 19:53:58 41° E 19:58:14 10° NNE
Cosmos 2369 Rocket 2.7 19:50:06 10° SSW 19:55:25 39° SE 20:00:42 10° ENE
ARIANE 5 R/B 4.5 19:51:53 10° S 19:55:58 23° SW 19:59:58 10° W
Cosmos 1805 3.6 19:52:24 10° NNW 19:56:23 70° WSW 20:00:25 10° S
ERS-2 4.0 19:54:56 10° SE 19:57:06 15° E 19:59:16 10° ENE
Cosmos 1758 3.5 19:53:26 10° NNW 19:57:34 87° WSW 20:01:44 10° SSE
Cosmos 2322 4.1 19:51:50 10° NW 19:57:36 68° SW 20:03:24 10° SE
CZ-4B DEB 4.3 19:52:28 10° SSE 19:58:05 87° WSW 20:03:37 10° NNW
Cosmos 2098 Rocket 4.1 19:57:04 10° ENE 19:58:24 12° E 19:59:46 10° ESE
Cosmos 1674 4.0 19:55:14 10° SSW 19:58:59 44° W 20:02:39 10° NNW
Cosmos 1743 Rocket 3.6 19:55:19 10° S 19:59:46 59° ESE 20:04:07 10° NNE
Cosmos 2221 4.2 20:02:23 10° ENE 20:04:39 14° E 20:06:57 10° SE
Aureole 2 Rocket 1.9 20:02:19 10° NNW 20:05:09 73° ENE 20:08:10 10° SSE
Cosmos 1953 2.5 20:03:00 10° NNW 20:07:05 80° WSW 20:11:17 10° SSE
Cosmos 2278 Rocket 3.9 20:02:20 10° SW 20:07:38 39° WNW 20:12:52 10° N
Geosat 4.1 20:07:23 10° SE 20:12:31 74° NE 20:17:35 10° NNW
Cosmos 1697 Rocket 4.2 20:08:27 10° WSW 20:12:56 23° S 20:17:25 10° SE
Meteor 1-31 Rocket 2.8 20:09:20 10° SSE 20:13:25 85° ENE 20:17:25 10° NNW
COSMOS 2455 2.9 20:07:47 10° SW 20:13:56 81° SE 20:20:01 10° NE
Meteor PRIRODA 3.8 20:10:20 10° SSE 20:14:06 80° WSW 20:17:49 10° NNW
Cosmos 2298 Rocket 4.3 20:09:22 10° SSW 20:14:39 48° SE 20:19:52 10° NE
USA 32 4.2 20:09:18 10° S 20:14:41 84° W 20:19:59 10° N
Cosmos 2150 Rocket 4.4 20:10:07 10° SSW 20:15:24 46° SE 20:20:43 10° ENE
RESURS DK-1 4.3 20:14:27 10° NE 20:16:17 13° ENE 20:17:40 11° E
Cosmos 1400 Rocket 4.0 20:15:05 10° S 20:18:31 23° ESE 20:21:56 10° ENE
SL-16 R/B 3.5 20:14:56 10° W 20:20:04 33° SSW 20:25:16 10° SE
ATLAS CENTAUR R/B 2.3 20:16:37 10° SW 20:21:19 44° SSE 20:25:48 11° E
Cosmos 1992 Rocket 4.3 20:17:05 10° NW 20:22:23 70° WSW 20:27:43 10° SSE
Cosmos 1937 Rocket 3.7 20:17:13 10° SSW 20:22:28 50° SE 20:27:36 10° NE
COSMO-SKYMED 1 3.1 20:20:59 10° N 20:25:22 66° WNW 20:29:49 10° SSW
Cosmos 2333 4.4 20:20:31 10° NW 20:26:14 75° SW 20:32:04 10° SE
SL-16 R/B 3.0 20:24:55 10° N 20:29:59 34° ENE 20:34:29 13° SE
PAYLOAD A 4.4 20:25:48 10° SSE 20:30:39 40° E 20:35:17 10° NNE
Cosmos 2322 Rocket 3.6 20:26:14 10° W 20:31:12 30° SSW 20:36:12 10° SE
NOSS 3-1 (C) 4.1 20:25:54 10° W 20:33:31 57° S 20:39:08 15° ESE
Thor Agena Rocket 4.1 20:31:28 10° N 20:36:47 67° WNW 20:42:11 10° SSW
Cosmos 1703 3.3 20:32:42 10° S 20:36:49 70° ESE 20:40:51 10° NNE
CZ-2C R/B 2.9 20:34:41 10° SSE 20:38:56 33° E 20:43:09 10° NNE
Cosmos 1470 3.3 20:36:20 10° NNW 20:40:18 62° WSW 20:44:22 10° S
NOSS 0 Rocket 3.9 20:36:36 10° NNW 20:42:50 78° NE 20:48:42 12° SE
USA 234 3.4 20:39:07 10° E 20:45:43 84° N 20:52:22 10° W
Cosmos 1315 Rocket 3.9 20:42:43 10° S 20:46:00 23° ESE 20:47:17 20° E
Cosmos 2151 3.1 20:41:47 10° SSW 20:46:11 81° WNW 20:50:33 10° N
NOAA 6 4.1 20:40:58 10° SSE 20:46:17 85° ENE 20:51:33 10° NNW
Okean O Rocket 3.4 20:46:49 10° S 20:50:41 30° WSW 20:54:31 10° WNW
Helios 1B rocket 3.7 20:53:38 22° ESE 20:53:59 22° SE 20:57:14 10° S
Cosmos 1818 4.1 20:49:29 10° NNW 20:54:32 41° NE 20:57:40 21° ESE
YAOGAN 1 4.0 20:55:31 19° E 20:55:31 19° E 20:58:10 10° NE
Cosmos 1500 Rocket 4.2 20:50:36 10° SSW 20:55:09 63° W 20:59:37 10° N
IDEFIX/ARIANE 42P 2.8 20:50:03 10° SSE 20:55:19 53° E 21:00:32 10° N
Cosmos 1484 Rocket 4.1 20:57:23 21° ENE 20:57:23 21° ENE 20:59:50 10° NE
Cosmos 1656 Rocket 4.3 20:52:45 10° SSW 20:57:52 35° SSE 21:00:44 22° E
Cosmos 1934 Rocket 4.0 20:52:24 10° N 20:58:42 78° E 21:05:09 10° SSE
CRYOSAT 2 4.5 20:54:48 10° S 20:59:43 56° E 21:04:35 10° NNE
Cosmos 1626 2.6 20:56:26 10° SSW 21:00:16 66° W 21:04:02 10° N
Meteor 1-16 Rocket 4.1 20:57:24 10° NNW 21:02:55 88° ENE 21:08:23 10° SSE
Cosmos 1633 Rocket 3.4 21:00:33 10° S 21:04:49 42° ESE 21:09:02 10° NE
Cosmos 1242 Rocket 3.2 21:01:47 10° NNE 21:04:59 32° E 21:05:20 31° E
CZ-4 R/B 2.3 21:05:56 26° ESE 21:07:16 31° E 21:11:06 10° NNE
ADEOS II 4.1 21:03:34 10° S 21:07:53 25° SW 21:12:09 10° WNW
MSX 4.1 21:03:01 10° SSE 21:08:39 48° E 21:14:15 10° N
CSL-04 Rocket 3.8 21:04:47 10° SSE 21:10:06 50° E 21:15:18 10° N
Cosmos 1666 Rocket 3.7 21:07:01 10° S 21:11:34 56° ESE 21:16:03 10° NNE
Cosmos 1908 3.8 21:08:04 10° NNE 21:11:44 37° E 21:12:54 30° SE
Cosmos-2242 4.1 21:11:46 10° NW 21:16:04 46° WSW 21:20:24 10° S
ERBS 4.2 21:13:59 10° N 21:16:27 19° NE 21:16:27 19° NE
Cosmos 2058 4.0 21:12:54 10° SSW 21:17:03 48° W 21:21:09 10° NNW
Lacrosse 5 3.3 21:13:21 10° N 21:17:10 21° NE 21:18:02 21° ENE
Cosmos 2263 4.2 21:11:43 10° SW 21:17:32 74° SE 21:23:21 10° NE
COSMOS 2428 3.7 21:12:57 10° WNW 21:18:22 42° SW 21:22:59 14° SSE
Cosmos 1805 Rocket 3.5 21:14:00 10° SSW 21:18:31 85° E 21:22:56 10° NNE
Sich 1 3.0 21:15:28 10° S 21:19:52 64° ESE 21:24:11 10° NNE
Cosmos 1898 Rocket 4.0 21:15:16 10° SW 21:20:28 62° WNW 21:25:38 10° NNE
Cosmos 1933 Rocket 4.2 21:16:23 10° S 21:20:29 33° ESE 21:20:31 33° ESE
Cosmos 371 Rocket 4.4 21:17:55 10° NNE 21:21:35 26° ENE 21:21:35 26° ENE
Cosmos 1842 Rocket 3.8 21:18:22 10° NNW 21:22:53 76° WSW 21:27:29 10° S
Cosmos 2360 Rocket 3.7 21:20:21 10° W 21:25:18 29° SSW 21:29:17 14° SSE
Cosmos 1980 4.0 21:21:14 10° NW 21:26:55 66° SW 21:31:15 18° SSE
Cosmos 1980 Rocket 3.8 21:23:56 10° SW 21:28:20 22° S 21:30:36 18° SSE
Radarsat Rocket 4.4 21:22:58 10° SSE 21:29:12 76° WSW 21:36:10 10° NNW
Cosmos 2237 Rocket 2.5 21:23:45 10° NW 21:29:29 67° SW 21:33:48 18° SSE
Cosmos 1125 Rocket 3.7 21:25:03 10° SSW 21:30:22 53° SE 21:32:57 29° ENE
Okean-O 4.0 21:26:16 10° S 21:30:29 38° WSW 21:34:39 10° NW
Cosmos 2219 Rocket 3.0 21:25:08 10° WNW 21:30:35 48° SW 21:34:51 17° SSE
ATLAS 2AS CENTAUR R/B 2.6 21:25:03 10° WNW 21:31:07 65° SSW 21:34:28 27° SE
ERS-2 2.2 21:28:44 19° SSE 21:31:21 85° WSW 21:35:08 10° NNW
USA 229 DEB 3.9 21:24:23 10° WSW 21:31:32 60° SSE 21:35:05 30° E
USA 229 3.9 21:24:29 10° WSW 21:31:39 60° SSE 21:35:12 30° E
TIMED 4.4 21:28:12 10° SSW 21:32:40 67° ESE 21:34:52 29° NE
Cosmos 1802 Rocket 4.4 21:26:43 10° NNE 21:32:46 43° E 21:38:50 10° SSE
Cosmos 990 Rocket 4.2 21:28:41 10° SSW 21:33:54 71° WNW 21:39:04 10° NNE
SJ-12 3.8 21:30:50 18° SSE 21:33:54 79° ENE 21:38:03 10° NNW
Cosmos 1943 Rocket 2.1 21:28:30 10° SW 21:34:16 77° SE 21:38:44 17° NE
CENTAUR R/B 3.7 21:29:05 10° WSW 21:34:53 39° NW 21:40:10 10° NNE
Tsikada Rocket 4.2 21:30:11 10° S 21:36:32 49° ESE 21:42:46 10° NE
Cosmos 2333 Rocket 2.9 21:32:04 10° WNW 21:37:42 51° SW 21:41:53 18° SSE
NOSS 3-4 (A) 4.0 21:30:46 10° NW 21:38:31 69° NE 21:42:40 29° ESE
NOSS 3-4 (C) 4.0 21:30:51 10° NW 21:38:36 69° NE 21:42:44 29° ESE
NOSS 3-1 (A) 4.1 21:31:22 10° WSW 21:38:46 54° S 21:41:54 31° ESE
Ariane Rocket 2.9 21:33:37 10° SSE 21:38:51 77° ENE 21:44:01 10° NNW
Cosmos 2098 Rocket 3.0 21:36:28 10° NNW 21:39:24 49° WSW 21:40:47 26° S
Cosmos 372 Rocket 4.1 21:34:34 10° SSW 21:39:50 53° SE 21:41:32 38° ENE
Cosmos 2369 Rocket 2.4 21:34:15 10° SW 21:39:53 71° WNW 21:45:30 10° NNE
Cosmos 2173 Rocket 4.1 21:34:13 10° NNE 21:40:22 52° E 21:46:30 10° SSE
Cosmos 2221 2.4 21:37:11 10° N 21:41:31 81° ENE 21:44:30 20° SSE
CORIOLIS 4.3 21:37:37 17° SSE 21:41:42 52° E 21:47:03 10° N
SJ-7 4.4 21:41:19 36° SSE 21:42:58 67° ENE 21:47:12 10° N
ASTEX 1 3.3 21:39:21 10° S 21:44:22 83° E 21:49:22 10° N
Cosmos 1153 Rocket 4.4 21:39:23 10° N 21:45:36 82° E 21:51:52 10° SSE
SMAP 3.0 21:44:04 26° SSE 21:46:43 66° ENE 21:51:25 10° N
USA 267 4.4 21:49:01 23° NE 21:49:09 23° NE 21:54:14 10° N
Cosmos 1943 4.4 21:44:48 10° NNE 21:47:55 25° NE 21:47:55 25° NE
Cosmos 2061 Rocket 4.0 21:45:03 10° NNE 21:51:11 56° E 21:57:20 10° SSE
RESURS DK-1 2.3 21:49:25 10° NNW 21:53:34 67° NE 21:53:37 67° ENE
Cosmos 1400 Rocket 3.4 21:51:14 10° SSW 21:55:24 62° W 21:59:33 10° N
Meteor 2-3 Rocket 3.8 21:52:16 10° S 21:58:05 57° ESE 21:59:57 40° ENE
Cosmos 1697 Rocket 4.0 21:54:11 10° SW 21:58:49 24° SSE 21:59:28 24° SSE
Cosmos 1603 3.8 21:55:15 10° NNW 22:00:47 54° ENE 22:01:33 50° E
ATLAS CENTAUR R/B 1.8 21:55:51 10° SW 22:00:48 83° NW 22:02:06 50° NE
Cosmos 1470 Rocket 3.4 21:56:44 10° S 22:01:14 72° ESE 22:01:26 70° E
Cosmos 1605 Rocket 4.4 21:56:08 10° NNW 22:02:24 62° WSW 22:08:39 10° S
Meteor 2-17 Rocket 4.3 21:58:14 10° N 22:04:20 75° E 22:10:29 10° SSE
SL-16 R/B 3.8 22:01:31 10° SW 22:05:55 22° S 22:07:37 19° SSE
Radarsat 4.4 22:03:19 20° SSE 22:07:08 82° ENE 22:12:24 10° NNW
CSL-04 Debris 4.3 22:02:31 10° SSE 22:08:08 79° WSW 22:13:42 10° NNW
Cosmos 1570 Rocket 4.2 22:05:25 10° NW 22:10:44 71° WSW 22:13:17 32° SSE
Cosmos 2100 Rocket 3.9 22:05:20 10° N 22:11:38 83° E 22:17:56 10° SSE
SL-16 R/B 2.4 22:08:06 10° NW 22:13:49 68° SW 22:16:23 34° SSE
Cosmos 2322 Rocket 3.8 22:12:45 10° SW 22:17:03 21° S 22:18:14 20° SSE
CZ-2C R/B 3.2 22:13:03 11° S 22:17:23 47° WSW 22:21:51 10° NW
IRS-1A Rocket 4.3 22:13:10 10° SSE 22:19:12 89° ENE 22:25:11 10° NNW
SPOT 3 Rocket 4.2 22:21:56 41° NNE 22:21:56 41° NNE 22:25:28 10° N
Meteor 2-2 Rocket 4.3 22:14:30 10° N 22:19:53 58° ENE 22:19:53 58° ENE
Cosmos 1315 Rocket 3.3 22:18:58 10° SSW 22:22:57 57° W 22:23:06 57° WNW
Cosmos 1814 Rocket 4.3 22:19:04 10° NNW 22:23:07 52° NNE 22:23:07 52° NNE
Cosmos 332 Rocket 3.8 22:19:49 10° NNW 22:24:10 70° N 22:24:10 70° N
NOSS 3-1 (C) 3.7 22:18:07 10° WSW 22:25:23 61° SSE 22:26:33 53° SE
Helios 1B rocket 3.2 22:30:00 48° SW 22:30:00 48° SW 22:33:08 10° SSW
USA 234 3.7 22:26:28 36° NNE 22:29:06 57° NNW 22:35:38 10° WSW
SL-08 R/B 4.3 22:23:23 10° N 22:29:33 68° E 22:35:43 10° SSE
YAOGAN 1 3.2 22:32:41 50° NW 22:32:41 50° NW 22:36:00 10° NNW
Cosmos 1484 Rocket 4.0 22:32:46 39° NW 22:32:46 39° NW 22:35:24 10° NNW
In-Cosmos 22 Rocket 4.5 22:26:59 10° SSW 22:32:23 64° W 22:37:49 10° N
IDEFIX/ARIANE 42P 4.0 22:29:54 10° S 22:34:49 38° WSW 22:39:42 10° NW
Cosmos 2016 Rocket 3.9 22:29:49 10° N 22:36:05 84° E 22:42:30 10° SSE
Cosmos 468 Rocket 4.0 22:31:17 10° NNW 22:36:40 83° WSW 22:36:58 78° S
Cosmos 1818 3.7 22:32:31 10° WNW 22:37:56 69° SSW 22:38:20 66° S
USA 184 3.8 22:30:57 10° WSW 22:37:59 76° NW 22:46:42 23° NE
Cosmos 1459 Rocket 4.1 22:32:06 10° NNW 22:38:16 75° WSW 22:44:37 10° S
Cosmos 1242 Rocket 4.4 22:36:48 10° NW 22:39:31 29° W 22:39:31 29° W
Cosmos 1816 Rocket 4.5 22:34:54 10° SSW 22:41:25 86° W 22:44:38 32° N
Cosmos 1656 Rocket 3.6 22:36:26 10° SW 22:42:03 82° WNW 22:42:08 81° NW
CZ-4 R/B 2.5 22:41:58 44° SW 22:42:28 46° WSW 22:46:35 10° NW
MOS 1 4.4 22:57:46 71° SSW 22:58:14 76° WSW 23:03:58 10° NNW
Lacrosse 5 3.2 22:54:22 10° NW 22:57:16 32° NW 22:57:16 32° NW
Cosmos 371 Rocket 4.4 22:57:08 10° NW 23:00:18 39° NW 23:00:18 39° NW
COSMOS 2428 4.4 22:59:35 10° WSW 23:04:08 23° SSW 23:05:00 23° S
Cosmos 2360 Rocket 4.0 23:06:46 10° SW 23:11:03 22° S 23:11:03 22° S
Cosmos 1980 Rocket 3.7 23:08:59 10° SW 23:12:22 27° S 23:12:22 27° S
Cosmos 2237 Rocket 3.7 23:09:38 10° W 23:14:35 28° SSW 23:15:38 27° S
Cosmos 2219 Rocket 3.9 23:11:21 10° WSW 23:15:54 24° SSW 23:16:34 23° S
Cosmos 1943 Rocket 3.9 23:12:44 10° SW 23:17:36 29° WNW 23:20:20 20° NNW
ATLAS 2AS CENTAUR R/B 3.1 23:16:52 10° WSW 23:21:54 46° SSW 23:21:54 46° SSW
USA 229 DEB 3.8 23:15:45 10° SW 23:22:33 75° WNW 23:22:33 75° WNW
USA 229 3.8 23:15:51 10° SW 23:22:39 75° WNW 23:22:39 75° WNW
Cosmos 2333 Rocket 3.9 23:18:31 10° WSW 23:23:17 25° SSW 23:23:53 25° S
NOSS 3-4 (A) 4.0 23:22:05 10° WNW 23:29:49 66° SSW 23:30:07 65° S
NOSS 3-4 (C) 4.0 23:22:10 10° WNW 23:29:54 66° SSW 23:30:11 65° S
NOSS 3-1 (A) 4.0 23:23:20 10° WSW 23:29:21 60° SSW 23:29:21 60° SSW
USA 267 4.5 23:36:22 30° NNW 23:36:22 30° NNW 23:39:41 10° NW
ATLAS CENTAUR R/B 3.9 23:35:28 10° WSW 23:38:25 22° WNW 23:38:25 22° WNW
Cosmos 1697 Rocket 4.4 23:38:33 10° SW 23:41:12 27° SSW 23:41:12 27° SSW
SL-16 R/B 4.2 23:46:57 10° SW 23:49:29 21° SSW 23:49:29 21° SSW
